This demonstration page uses our WeatherBlox Daily Observations layout. Learn more.

Left ArrowRight Arrow

34.74481, -87.66753

Hourly Observations for April 11, 2017

Temp ( °F °C ) Dew Point ( °F °C ) Humidity (%) Winds ( mph kmh ) Pressure ( in mb ) Visibility ( mi km ) Precip ( " mm )
12:53 am 00:53 Clear 65 18.3 53 11.7 66 66 SW 5 7 30.16 1022 10 16 0.00 0.00
1:53 am 01:53 Clear 65 18.3 53 11.7 66 66 SSW 3 6 30.16 1021 10 16 0.00 0.00
2:53 am 02:53 Clear 61 16.1 53 11.7 75 75 SSE 5 7 30.14 1021 10 16 0.00 0.00
3:53 am 03:53 Clear 63 17.2 54 12.2 73 73 SSE 7 11 30.14 1021 10 16 0.00 0.00
4:53 am 04:53 Clear 61 16.1 54 12.2 78 78 Calm 30.16 1021 10 16 0.00 0.00
5:53 am 05:53 Clear 57 13.9 53 11.7 87 87 Calm 30.19 1022 10 16 0.00 0.00
6:53 am 06:53 Mostly Cloudy 58 14.4 54 12.2 87 87 Calm 30.22 1023 9 14 0.00 0.00
7:53 am 07:53 Sunny 62 16.7 56 13.3 80 80 SSE 5 7 30.23 1024 10 16 0.00 0.00
8:53 am 08:53 Partly Cloudy 67 19.4 57 13.9 71 71 SW 3 6 30.25 1024 10 16 0.00 0.00
9:53 am 09:53 Sunny 71 21.7 57 13.9 61 61 SSW 6 9 30.25 1024 10 16 0.00 0.00
10:53 am 10:53 Sunny 76 24.4 56 13.3 50 50 WSW 13 20 30.25 1024 10 16 0.00 0.00
11:53 am 11:53 Sunny 77 25 55 12.8 47 47 WSW 12 19 30.24 1024 10 16 0.00 0.00
12:53 pm 12:53 Sunny 78 25.6 52 11.1 40 40 SW 13 20 30.22 1024 10 16 0.00 0.00
1:53 pm 13:53 Sunny 78 25.6 52 11.1 40 40 SW 13 20 30.21 1023 10 16 0.00 0.00
2:53 pm 14:53 Sunny 79 26.1 54 12.2 42 42 WSW 9 15 30.19 1022 10 16 0.00 0.00
3:53 pm 15:53 Sunny 78 25.6 56 13.3 47 47 W 6 9 30.17 1022 10 16 0.00 0.00
4:53 pm 16:53 Mostly Cloudy 76 24.4 55 12.8 48 48 WSW 7 11 30.17 1022 10 16 0.00 0.00
5:19 pm 17:19 Partly Cloudy 73 22.8 59 15 62 62 WNW 10 17 30.15 1021 10 16 0.00 0.00
5:53 pm 17:53 Sunny 73 22.8 58 14.4 59 59 NW 12 19 30.17 1022 10 16 0.00 0.00
6:53 pm 18:53 Sunny 71 21.7 58 14.4 63 63 NNW 6 9 30.19 1022 10 16 0.00 0.00
7:53 pm 19:53 Clear 69 20.6 59 15 70 70 NNW 6 9 30.21 1023 10 16 0.00 0.00
8:53 pm 20:53 Partly Cloudy 68 20 57 13.9 68 68 N 5 7 30.23 1024 10 16 0.00 0.00
9:53 pm 21:53 Partly Cloudy 66 18.9 57 13.9 73 73 NNW 5 7 30.25 1024 10 16 0.00 0.00
10:53 pm 22:53 Clear 65 18.3 58 14.4 78 78 NNW 3 6 30.25 1024 10 16 0.00 0.00
11:53 pm 23:53 Clear 65 18.3 58 14.4 78 78 VRB 6 9 30.24 1024 10 16 0.00 0.00

Powered by AerisWeather